Radiation Dose at Monitoring Post of Fukushima Daini Nuclear Power Station
Date,Time,MP-1(microSv/h),MP-2(microSv/h),MP-3(microSv/h),MP-4(microSv/h),MP-5(microSv/h),MP-6(microSv/h),MP-7(microSv/h),Wind Direction,Wind Velocity(m/s),Rain
2021/03/14,00:00,0.166,0.152,0.240,0.230,0.231,0.129,0.082,west-northwest,13.6,No
2021/03/14,00:10,0.166,0.150,0.240,0.230,0.230,0.130,0.083,west-northwest,13.3,No
2021/03/14,00:20,0.168,0.150,0.240,0.231,0.232,0.130,0.082,west-northwest,13.6,No
2021/03/14,00:30,0.166,0.150,0.241,0.230,0.232,0.130,0.082,west-northwest,12.9,No
2021/03/14,00:40,0.166,0.149,0.240,0.230,0.231,0.130,0.081,west-northwest,12.0,No
2021/03/14,00:50,0.167,0.149,0.241,0.230,0.232,0.129,0.082,west-northwest,14.8,No
2021/03/14,01:00,0.167,0.149,0.242,0.230,0.230,0.130,0.082,west-northwest,12.9,No
2021/03/14,01:10,0.167,0.149,0.242,0.230,0.231,0.130,0.081,west-northwest,12.9,No
2021/03/14,01:20,0.167,0.150,0.241,0.231,0.232,0.130,0.082,west-northwest,12.6,No
2021/03/14,01:30,0.167,0.150,0.242,0.230,0.232,0.129,0.082,west-northwest,14.0,No
2021/03/14,01:40,0.167,0.150,0.241,0.230,0.231,0.130,0.082,west-northwest,16.0,No
2021/03/14,01:50,0.168,0.148,0.241,0.230,0.232,0.130,0.081,west-northwest,12.9,No
2021/03/14,02:00,0.167,0.149,0.241,0.230,0.230,0.131,0.081,west-northwest,10.9,No
2021/03/14,02:10,0.167,0.149,0.242,0.231,0.232,0.130,0.082,west-northwest,10.7,No
2021/03/14,02:20,0.168,0.149,0.243,0.232,0.233,0.131,0.082,west-northwest,10.9,No
2021/03/14,02:30,0.168,0.150,0.242,0.233,0.231,0.129,0.082,west-northwest,11.8,No
2021/03/14,02:40,0.166,0.149,0.243,0.232,0.232,0.130,0.081,northwest,12.2,No
2021/03/14,02:50,0.168,0.150,0.242,0.230,0.231,0.130,0.081,west-northwest,11.1,No
2021/03/14,03:00,0.167,0.150,0.243,0.232,0.231,0.130,0.082,west-northwest,9.3,No
2021/03/14,03:10,0.167,0.150,0.241,0.230,0.232,0.130,0.082,west,16.2,No
2021/03/14,03:20,0.168,0.148,0.242,0.231,0.232,0.130,0.082,west-northwest,13.7,No
2021/03/14,03:30,0.167,0.149,0.242,0.231,0.231,0.131,0.082,west-northwest,18.6,No
2021/03/14,03:40,0.167,0.150,0.244,0.231,0.233,0.131,0.082,west,16.7,Yes
2021/03/14,03:50,0.168,0.149,0.243,0.232,0.232,0.132,0.081,west,16.4,No
2021/03/14,04:00,0.169,0.148,0.245,0.232,0.232,0.132,0.082,west-northwest,13.9,No
2021/03/14,04:10,0.166,0.150,0.244,0.232,0.233,0.132,0.082,west-northwest,15.6,No
2021/03/14,04:20,0.169,0.150,0.243,0.230,0.232,0.131,0.082,west,14.9,No
2021/03/14,04:30,0.168,0.150,0.244,0.232,0.232,0.132,0.082,west,17.9,No
2021/03/14,04:40,0.168,0.150,0.244,0.232,0.232,0.131,0.082,west,19.4,No
2021/03/14,04:50,0.169,0.151,0.242,0.232,0.232,0.132,0.081,west,21.1,No
2021/03/14,05:00,0.169,0.151,0.244,0.234,0.232,0.132,0.082,west,19.3,No
2021/03/14,05:10,0.168,0.149,0.245,0.232,0.232,0.133,0.082,west-northwest,18.9,No
2021/03/14,05:20,0.168,0.150,0.244,0.231,0.232,0.131,0.081,west,18.0,No
2021/03/14,05:30,0.168,0.150,0.244,0.233,0.232,0.131,0.082,west-northwest,12.6,No
2021/03/14,05:40,0.168,0.151,0.245,0.233,0.233,0.133,0.081,west,16.0,No
2021/03/14,05:50,0.167,0.151,0.246,0.232,0.232,0.132,0.082,west,19.3,No
2021/03/14,06:00,0.169,0.150,0.245,0.232,0.232,0.132,0.082,west,11.7,No
2021/03/14,06:10,0.168,0.151,0.245,0.233,0.234,0.132,0.081,west-northwest,11.2,No
2021/03/14,06:20,0.169,0.151,0.244,0.233,0.233,0.132,0.082,northwest,7.8,No
2021/03/14,06:30,0.168,0.150,0.245,0.232,0.233,0.133,0.082,west,7.0,No
2021/03/14,06:40,0.169,0.149,0.244,0.232,0.234,0.132,0.082,northwest,6.8,No
2021/03/14,06:50,0.168,0.151,0.244,0.232,0.233,0.132,0.081,west-northwest,10.9,No
2021/03/14,07:00,0.169,0.150,0.245,0.232,0.233,0.132,0.081,east,2.9,No
2021/03/14,07:10,0.168,0.150,0.245,0.233,0.234,0.132,0.081,southwest,4.2,No
2021/03/14,07:20,0.169,0.151,0.244,0.232,0.233,0.132,0.081,west-northwest,7.7,No
2021/03/14,07:30,0.169,0.151,0.244,0.231,0.230,0.131,0.082,west-southwest,9.8,No
2021/03/14,07:40,0.168,0.151,0.244,0.232,0.233,0.132,0.082,west,8.7,No
2021/03/14,07:50,0.169,0.151,0.245,0.231,0.232,0.133,0.081,west,10.6,No
2021/03/14,08:00,0.168,0.150,0.243,0.232,0.232,0.132,0.082,west,8.8,No
2021/03/14,08:10,0.167,0.150,0.245,0.232,0.233,0.131,0.082,west,11.2,No
2021/03/14,08:20,0.169,0.150,0.244,0.232,0.234,0.132,0.082,west-northwest,7.5,No
2021/03/14,08:30,0.169,0.150,0.244,0.231,0.233,0.132,0.082,west-northwest,10.1,No
2021/03/14,08:40,0.168,0.150,0.244,0.233,0.234,0.133,0.081,west,9.5,No
2021/03/14,08:50,0.168,0.150,0.245,0.233,0.232,0.132,0.082,west,10.0,No
2021/03/14,09:00,0.169,0.151,0.244,0.233,0.234,0.133,0.081,west,14.6,No
2021/03/14,09:10,0.169,0.150,0.244,0.233,0.232,0.133,0.082,west,14.0,No
2021/03/14,09:20,0.170,0.150,0.246,0.233,0.232,0.133,0.082,northwest,7.3,No
2021/03/14,09:30,0.170,0.151,0.247,0.233,0.234,0.131,0.082,west-northwest,10.6,No
2021/03/14,09:40,0.168,0.150,0.245,0.234,0.233,0.132,0.082,west-northwest,8.1,No
2021/03/14,09:50,0.169,0.149,0.245,0.234,0.231,0.132,0.082,northwest,8.7,No
2021/03/14,10:00,0.169,0.151,0.246,0.232,0.235,0.132,0.082,northwest,6.5,No
2021/03/14,10:10,0.168,0.151,0.245,0.233,0.233,0.132,0.082,northwest,8.4,No
2021/03/14,10:20,0.169,0.151,0.245,0.233,0.233,0.131,0.082,northwest,10.6,No
2021/03/14,10:30,0.169,0.151,0.246,0.233,0.235,0.133,0.082,northwest,10.1,No
2021/03/14,10:40,0.169,0.151,0.244,0.232,0.232,0.132,0.082,west-northwest,9.2,No
2021/03/14,10:50,0.170,0.150,0.245,0.233,0.234,0.132,0.082,northwest,11.5,No
2021/03/14,11:00,0.168,0.150,0.245,0.233,0.232,0.133,0.081,west-northwest,15.7,No
2021/03/14,11:10,0.169,0.150,0.246,0.233,0.233,0.132,0.082,northwest,8.6,No
2021/03/14,11:20,0.169,0.151,0.245,0.233,0.233,0.133,0.082,northwest,12.0,No
2021/03/14,11:30,0.168,0.151,0.246,0.234,0.233,0.132,0.082,northwest,11.8,No
2021/03/14,11:40,0.170,0.150,0.246,0.233,0.235,0.132,0.082,west-northwest,14.6,No
2021/03/14,11:50,0.169,0.151,0.244,0.233,0.231,0.133,0.081,west-northwest,11.2,No
2021/03/14,12:00,0.169,0.151,0.246,0.234,0.232,0.133,0.082,west-northwest,13.9,No
2021/03/14,12:10,0.168,0.150,0.245,0.233,0.233,0.133,0.082,west-northwest,12.6,No
2021/03/14,12:20,0.169,0.150,0.245,0.234,0.233,0.133,0.082,northwest,14.4,No
2021/03/14,12:30,0.170,0.150,0.246,0.233,0.232,0.133,0.082,west-northwest,19.8,No
2021/03/14,12:40,0.169,0.151,0.246,0.233,0.233,0.132,0.081,west-northwest,13.9,No
2021/03/14,12:50,0.169,0.150,0.247,0.233,0.233,0.133,0.082,west-northwest,12.5,No
2021/03/14,13:00,0.170,0.152,0.247,0.233,0.232,0.132,0.082,west-northwest,10.4,No
2021/03/14,13:10,0.170,0.152,0.247,0.234,0.234,0.133,0.081,west-northwest,10.7,No
2021/03/14,13:20,0.170,0.151,0.246,0.234,0.233,0.134,0.082,west-northwest,11.2,No
2021/03/14,13:30,0.170,0.150,0.246,0.234,0.235,0.133,0.082,west-northwest,12.9,No
2021/03/14,13:40,0.170,0.151,0.246,0.233,0.233,0.132,0.081,northwest,12.9,No
2021/03/14,13:50,0.170,0.150,0.247,0.233,0.234,0.133,0.082,west-northwest,8.8,No
2021/03/14,14:00,0.170,0.151,0.248,0.234,0.234,0.133,0.082,west-northwest,10.9,No
2021/03/14,14:10,0.170,0.151,0.248,0.235,0.233,0.133,0.082,west-northwest,10.4,No
2021/03/14,14:20,0.171,0.150,0.247,0.234,0.234,0.133,0.082,west-northwest,8.8,No
2021/03/14,14:30,0.168,0.151,0.247,0.234,0.232,0.132,0.082,west-northwest,12.0,No
2021/03/14,14:40,0.169,0.151,0.247,0.234,0.233,0.133,0.081,west-northwest,8.8,No
2021/03/14,14:50,0.170,0.150,0.247,0.235,0.234,0.133,0.083,west-northwest,8.5,No
2021/03/14,15:00,0.170,0.152,0.247,0.234,0.234,0.133,0.082,west-northwest,4.0,No
2021/03/14,15:10,0.171,0.151,0.248,0.233,0.233,0.134,0.081,west-northwest,7.1,No
2021/03/14,15:20,0.169,0.152,0.247,0.235,0.234,0.133,0.082,west-northwest,8.1,No
2021/03/14,15:30,0.170,0.151,0.247,0.234,0.233,0.133,0.082,west-northwest,12.0,No
2021/03/14,15:40,0.170,0.151,0.246,0.234,0.233,0.133,0.081,west-northwest,12.2,No
2021/03/14,15:50,0.168,0.152,0.245,0.234,0.235,0.133,0.082,west-northwest,10.4,No
2021/03/14,16:00,0.170,0.151,0.247,0.234,0.233,0.134,0.081,west-northwest,10.0,No
2021/03/14,16:10,0.170,0.151,0.248,0.235,0.233,0.134,0.082,west-northwest,11.5,No
2021/03/14,16:20,0.171,0.152,0.248,0.235,0.234,0.133,0.082,west-northwest,10.1,No
2021/03/14,16:30,0.170,0.152,0.247,0.234,0.234,0.133,0.082,west-northwest,10.6,No
2021/03/14,16:40,0.171,0.151,0.248,0.234,0.233,0.133,0.082,west-northwest,8.7,No
2021/03/14,16:50,0.170,0.151,0.248,0.235,0.235,0.133,0.082,northwest,8.8,No
2021/03/14,17:00,0.172,0.152,0.248,0.235,0.233,0.134,0.081,west-northwest,7.6,No
2021/03/14,17:10,0.171,0.152,0.247,0.235,0.234,0.134,0.082,northwest,6.6,No
2021/03/14,17:20,0.170,0.151,0.248,0.235,0.234,0.134,0.083,west-northwest,8.8,No
2021/03/14,17:30,0.170,0.151,0.248,0.233,0.232,0.133,0.081,west-northwest,10.9,No
2021/03/14,17:40,0.170,0.151,0.248,0.235,0.234,0.133,0.082,west-northwest,8.4,No
2021/03/14,17:50,0.170,0.152,0.248,0.236,0.233,0.134,0.082,west-northwest,7.9,No
2021/03/14,18:00,0.169,0.151,0.247,0.234,0.232,0.134,0.082,west-northwest,7.3,No
2021/03/14,18:10,0.169,0.152,0.247,0.235,0.235,0.134,0.081,northwest,7.3,No
2021/03/14,18:20,0.170,0.151,0.246,0.235,0.233,0.134,0.082,west-northwest,8.5,No
2021/03/14,18:30,0.171,0.152,0.246,0.234,0.233,0.133,0.082,northwest,6.2,No
2021/03/14,18:40,0.170,0.151,0.247,0.233,0.235,0.133,0.081,northwest,5.4,No
2021/03/14,18:50,0.171,0.151,0.249,0.234,0.234,0.133,0.082,north,6.6,No
2021/03/14,19:00,0.170,0.151,0.246,0.235,0.233,0.134,0.082,northwest,4.4,No
2021/03/14,19:10,0.170,0.153,0.248,0.235,0.234,0.132,0.081,northwest,3.2,No
2021/03/14,19:20,0.169,0.151,0.247,0.234,0.233,0.132,0.082,north-northwest,3.0,No
2021/03/14,19:30,0.171,0.151,0.247,0.236,0.232,0.134,0.082,northwest,4.5,No
2021/03/14,19:40,0.170,0.152,0.247,0.235,0.235,0.133,0.082,northwest,7.3,No
2021/03/14,19:50,0.170,0.152,0.248,0.235,0.233,0.134,0.082,north-northwest,7.3,No
2021/03/14,20:00,0.170,0.151,0.247,0.235,0.233,0.133,0.082,northwest,6.0,No
2021/03/14,20:10,0.170,0.151,0.247,0.234,0.234,0.133,0.082,north-northwest,6.6,No
2021/03/14,20:20,0.171,0.151,0.246,0.235,0.233,0.133,0.082,north-northwest,8.1,No
2021/03/14,20:30,0.170,0.152,0.247,0.235,0.233,0.133,0.083,northwest,7.9,No
2021/03/14,20:40,0.170,0.151,0.248,0.236,0.234,0.133,0.082,northwest,7.3,No
2021/03/14,20:50,0.171,0.152,0.247,0.235,0.231,0.134,0.082,west-northwest,6.8,No
2021/03/14,21:00,0.171,0.151,0.247,0.234,0.233,0.134,0.081,west-northwest,9.2,No
2021/03/14,21:10,0.172,0.151,0.248,0.234,0.233,0.134,0.082,west,12.8,No
2021/03/14,21:20,0.171,0.152,0.248,0.234,0.233,0.134,0.082,west,17.0,No
2021/03/14,21:30,0.172,0.152,0.248,0.234,0.233,0.133,0.082,west,14.4,No
2021/03/14,21:40,0.171,0.151,0.247,0.234,0.233,0.134,0.083,west-northwest,12.3,No
2021/03/14,21:50,0.170,0.153,0.247,0.235,0.235,0.134,0.083,west,13.4,No
2021/03/14,22:00,0.170,0.152,0.248,0.234,0.235,0.134,0.082,west,13.7,No
2021/03/14,22:10,0.171,0.152,0.248,0.236,0.235,0.134,0.083,west,14.5,No
2021/03/14,22:20,0.171,0.152,0.247,0.236,0.235,0.134,0.082,west-northwest,12.6,No
2021/03/14,22:30,0.170,0.153,0.247,0.235,0.233,0.135,0.083,west-northwest,12.0,No
2021/03/14,22:40,0.171,0.153,0.249,0.235,0.234,0.134,0.083,west,14.6,No
2021/03/14,22:50,0.172,0.153,0.248,0.235,0.235,0.134,0.083,west,16.3,No
2021/03/14,23:00,0.170,0.152,0.248,0.235,0.234,0.134,0.082,west,13.6,No
2021/03/14,23:10,0.171,0.151,0.248,0.235,0.234,0.134,0.082,west,16.8,No
2021/03/14,23:20,0.172,0.152,0.249,0.236,0.235,0.134,0.083,west,14.0,No
2021/03/14,23:30,0.171,0.152,0.249,0.237,0.235,0.134,0.082,west,17.0,No
2021/03/14,23:40,0.171,0.152,0.248,0.235,0.235,0.134,0.083,west,13.9,No
2021/03/14,23:50,0.171,0.153,0.248,0.235,0.236,0.134,0.082,west,14.8,No
